�������l�o���
Date,Time,MP-1(��Sv/h),MP-2(��Sv/h),MP-3(��Sv/h),MP-4(��Sv/h),MP-5(��Sv/h),MP-6(��Sv/h),MP-7(��Sv/h),MP-8(��Sv/h),����,����(m/s),���J
2021/04/26,00:00,0.643,0.961,0.598,1.184,0.838,0.375,0.661,0.616,�k��,6.2,��
2021/04/26,00:10,0.645,0.960,0.599,1.182,0.839,0.374,0.661,0.618,�k��,6.2,��
2021/04/26,00:20,0.644,0.961,0.596,1.183,0.837,0.375,0.658,0.616,�k�k��,7.3,��
2021/04/26,00:30,0.643,0.962,0.600,1.183,0.837,0.374,0.661,0.616,�k��,6.3,��
2021/04/26,00:40,0.643,0.960,0.597,1.183,0.838,0.375,0.659,0.617,�k��,6.6,��
2021/04/26,00:50,0.642,0.960,0.600,1.184,0.839,0.374,0.659,0.616,�k�k��,6.3,��
2021/04/26,01:00,0.642,0.960,0.599,1.182,0.837,0.374,0.658,0.618,�k��,5.6,��
2021/04/26,01:10,0.643,0.961,0.599,1.181,0.838,0.374,0.660,0.617,�k��,6.2,��
2021/04/26,01:20,0.642,0.961,0.597,1.182,0.839,0.374,0.660,0.616,�k��,6.0,��
2021/04/26,01:30,0.643,0.960,0.598,1.184,0.840,0.375,0.660,0.617,�k��,8.3,��
2021/04/26,01:40,0.643,0.961,0.598,1.181,0.837,0.373,0.660,0.618,�k��,6.9,��
2021/04/26,01:50,0.643,0.961,0.597,1.184,0.838,0.374,0.661,0.617,�k��,5.1,��
2021/04/26,02:00,0.642,0.960,0.596,1.183,0.837,0.375,0.660,0.616,�k��,4.4,��
2021/04/26,02:10,0.643,0.960,0.597,1.184,0.838,0.374,0.660,0.618,�k�k��,6.1,��
2021/04/26,02:20,0.642,0.960,0.597,1.181,0.839,0.375,0.660,0.617,�k�k��,6.3,��
2021/04/26,02:30,0.642,0.959,0.598,1.183,0.839,0.374,0.660,0.617,�k�k��,5.8,��
2021/04/26,02:40,0.640,0.959,0.599,1.182,0.837,0.374,0.660,0.617,�k�k��,6.1,��
2021/04/26,02:50,0.644,0.960,0.598,1.185,0.837,0.375,0.659,0.617,�k��,7.4,��
2021/04/26,03:00,0.641,0.962,0.600,1.184,0.838,0.374,0.660,0.617,�k�k��,5.1,��
2021/04/26,03:10,0.642,0.960,0.598,1.184,0.836,0.375,0.658,0.615,�k�k��,5.2,��
2021/04/26,03:20,0.643,0.957,0.598,1.183,0.837,0.374,0.660,0.617,�k,5.1,��
2021/04/26,03:30,0.642,0.958,0.597,1.186,0.837,0.374,0.660,0.618,�k,6.2,��
2021/04/26,03:40,0.642,0.960,0.597,1.181,0.835,0.375,0.660,0.618,�k,6.5,��
2021/04/26,03:50,0.643,0.961,0.597,1.184,0.838,0.374,0.659,0.615,�k�k��,5.9,��
2021/04/26,04:00,0.643,0.960,0.599,1.184,0.838,0.373,0.660,0.616,�k�k��,6.7,��
2021/04/26,04:10,0.643,0.960,0.596,1.184,0.836,0.375,0.659,0.618,�k�k��,7.6,��
2021/04/26,04:20,0.643,0.960,0.599,1.185,0.837,0.373,0.660,0.617,�k�k��,7.0,��
2021/04/26,04:30,0.642,0.957,0.598,1.183,0.836,0.374,0.657,0.614,�k�k��,5.6,��
2021/04/26,04:40,0.641,0.958,0.596,1.182,0.838,0.374,0.659,0.616,�k�k��,6.2,��
2021/04/26,04:50,0.641,0.959,0.596,1.184,0.838,0.374,0.659,0.615,�k�k��,6.8,��
2021/04/26,05:00,0.641,0.957,0.598,1.181,0.838,0.374,0.658,0.616,�k��,7.4,��
2021/04/26,05:10,0.640,0.958,0.596,1.182,0.835,0.374,0.661,0.616,�k��,8.1,��
2021/04/26,05:20,0.643,0.956,0.598,1.184,0.839,0.374,0.659,0.617,�k�k��,6.8,��
2021/04/26,05:30,0.640,0.960,0.597,1.181,0.837,0.374,0.660,0.617,�k��,7.1,��
2021/04/26,05:40,0.642,0.959,0.598,1.182,0.838,0.374,0.658,0.617,�k��,6.5,��
2021/04/26,05:50,0.644,0.958,0.598,1.184,0.838,0.373,0.659,0.616,�k��,7.6,��
2021/04/26,06:00,0.644,0.959,0.596,1.182,0.837,0.375,0.659,0.615,�k��,6.4,��
2021/04/26,06:10,0.643,0.959,0.596,1.181,0.836,0.375,0.660,0.618,�k��,6.4,��
2021/04/26,06:20,0.642,0.960,0.598,1.183,0.838,0.374,0.661,0.617,�k��,6.4,��
2021/04/26,06:30,0.641,0.958,0.598,1.185,0.836,0.376,0.659,0.617,�k�k��,7.0,��
2021/04/26,06:40,0.642,0.960,0.597,1.182,0.836,0.375,0.660,0.616,�k��,6.6,��
2021/04/26,06:50,0.642,0.961,0.599,1.183,0.838,0.375,0.662,0.617,�k�k��,8.7,��
2021/04/26,07:00,0.642,0.960,0.598,1.181,0.837,0.374,0.663,0.618,�k�k��,7.9,��
2021/04/26,07:10,0.644,0.960,0.600,1.183,0.838,0.374,0.662,0.618,�k�k��,8.3,��
2021/04/26,07:20,0.643,0.959,0.596,1.183,0.837,0.373,0.660,0.616,�k��,8.7,��
2021/04/26,07:30,0.644,0.963,0.598,1.182,0.838,0.373,0.661,0.616,�k�k��,9.0,��
2021/04/26,07:40,0.643,0.957,0.597,1.182,0.838,0.374,0.660,0.619,�k�k��,12.5,��
2021/04/26,07:50,0.645,0.959,0.599,1.183,0.838,0.372,0.661,0.618,�k�k��,10.9,��
2021/04/26,08:00,0.642,0.958,0.597,1.184,0.840,0.372,0.660,0.618,�k��,9.2,��
2021/04/26,08:10,0.644,0.958,0.598,1.185,0.838,0.374,0.661,0.618,�k��,10.2,��
2021/04/26,08:20,0.645,0.958,0.599,1.183,0.839,0.374,0.659,0.617,�k��,10.2,��
2021/04/26,08:30,0.644,0.958,0.600,1.183,0.837,0.373,0.659,0.616,�k�k��,9.2,��
2021/04/26,08:40,0.643,0.957,0.599,1.186,0.839,0.374,0.658,0.616,�k��,9.1,��
2021/04/26,08:50,0.645,0.956,0.598,1.184,0.839,0.374,0.659,0.615,�k,8.7,��
2021/04/26,09:00,0.645,0.955,0.599,1.184,0.838,0.374,0.658,0.615,�k�k��,9.9,��
2021/04/26,09:10,0.646,0.955,0.597,1.186,0.839,0.374,0.659,0.617,�k,9.5,��
2021/04/26,09:20,0.644,0.955,0.596,1.184,0.842,0.373,0.660,0.617,�k�k��,10.3,��
2021/04/26,09:30,0.644,0.955,0.598,1.187,0.841,0.373,0.659,0.614,�k�k��,10.3,��
2021/04/26,09:40,0.645,0.956,0.599,1.186,0.839,0.374,0.659,0.615,�k,10.3,��
2021/04/26,09:50,0.642,0.956,0.599,1.184,0.840,0.373,0.657,0.615,�k,8.6,��
2021/04/26,10:00,0.644,0.956,0.599,1.187,0.839,0.373,0.661,0.615,�k�k��,7.8,��
2021/04/26,10:10,0.644,0.954,0.600,1.187,0.839,0.373,0.657,0.616,�k��,6.8,��
2021/04/26,10:20,0.644,0.957,0.600,1.188,0.839,0.374,0.659,0.615,�k�k��,7.6,��
2021/04/26,10:30,0.645,0.957,0.600,1.186,0.839,0.374,0.658,0.615,�k,8.6,��
2021/04/26,10:40,0.646,0.958,0.600,1.183,0.839,0.374,0.660,0.615,�k,9.8,��
2021/04/26,10:50,0.644,0.957,0.600,1.186,0.841,0.375,0.660,0.616,�k�k��,8.8,��
2021/04/26,11:00,0.643,0.958,0.598,1.186,0.841,0.374,0.658,0.616,�k,11.6,��
2021/04/26,11:10,0.643,0.959,0.600,1.187,0.837,0.373,0.659,0.616,�k��,8.7,��
2021/04/26,11:20,0.643,0.957,0.600,1.188,0.839,0.374,0.660,0.615,�k��,8.5,��
2021/04/26,11:30,0.643,0.959,0.599,1.190,0.841,0.372,0.660,0.617,�k�k��,10.5,��
2021/04/26,11:40,0.644,0.959,0.600,1.186,0.840,0.372,0.660,0.616,�k�k��,11.3,��
2021/04/26,11:50,0.642,0.959,0.599,1.186,0.839,0.373,0.660,0.615,�k�k��,11.1,��
2021/04/26,12:00,0.643,0.960,0.598,1.189,0.839,0.373,0.660,0.615,�k�k��,10.3,��
2021/04/26,12:10,0.645,0.963,0.600,1.190,0.841,0.375,0.660,0.616,�k��,9.9,��
2021/04/26,12:20,0.645,0.961,0.599,1.188,0.841,0.372,0.660,0.616,�k�k��,11.3,��
2021/04/26,12:30,0.646,0.961,0.599,1.187,0.838,0.373,0.661,0.617,�k,9.7,��
2021/04/26,12:40,0.644,0.959,0.598,1.188,0.839,0.373,0.661,0.617,�k,8.4,��
2021/04/26,12:50,0.645,0.959,0.598,1.189,0.842,0.374,0.661,0.616,�k�k��,10.2,��
2021/04/26,13:00,0.645,0.959,0.597,1.189,0.840,0.377,0.660,0.618,�k�k��,10.2,��
2021/04/26,13:10,0.646,0.959,0.599,1.189,0.840,0.375,0.660,0.616,�k�k��,6.9,��
2021/04/26,13:20,0.647,0.960,0.599,1.188,0.841,0.375,0.660,0.615,�k�k��,10.2,��
2021/04/26,13:30,0.645,0.958,0.598,1.187,0.840,0.374,0.661,0.616,�k,7.7,��
2021/04/26,13:40,0.644,0.958,0.596,1.189,0.840,0.373,0.659,0.616,�k�k��,11.1,��
2021/04/26,13:50,0.643,0.959,0.597,1.187,0.841,0.375,0.659,0.616,�k�k��,11.6,��
2021/04/26,14:00,0.645,0.959,0.598,1.186,0.840,0.374,0.660,0.615,�k�k��,11.3,��
2021/04/26,14:10,0.646,0.959,0.599,1.189,0.841,0.374,0.660,0.615,�k��,9.7,��
2021/04/26,14:20,0.644,0.959,0.598,1.188,0.840,0.375,0.659,0.615,�k�k��,10.5,��
2021/04/26,14:30,0.644,0.958,0.598,1.188,0.841,0.375,0.659,0.615,�k��,9.5,��
2021/04/26,14:40,0.646,0.958,0.596,1.188,0.842,0.374,0.661,0.615,�k��,9.9,��
2021/04/26,14:50,0.645,0.957,0.596,1.186,0.839,0.375,0.659,0.615,�k�k��,9.4,��
2021/04/26,15:00,0.644,0.957,0.599,1.188,0.839,0.376,0.659,0.615,�k�k��,8.4,��
2021/04/26,15:10,0.645,0.960,0.599,1.188,0.840,0.376,0.658,0.614,�k�k��,7.8,��
2021/04/26,15:20,0.645,0.961,0.599,1.188,0.840,0.376,0.659,0.615,�k��,7.8,��
2021/04/26,15:30,0.644,0.959,0.598,1.190,0.839,0.376,0.659,0.616,�k��,8.2,��
2021/04/26,15:40,0.647,0.958,0.598,1.188,0.840,0.376,0.659,0.614,�k�k��,8.3,��
2021/04/26,15:50,0.646,0.960,0.599,1.188,0.838,0.375,0.659,0.616,�k��,7.4,��
2021/04/26,16:00,0.645,0.961,0.598,1.187,0.839,0.374,0.659,0.615,�k��,6.2,��
2021/04/26,16:10,0.644,0.960,0.599,1.187,0.839,0.376,0.660,0.616,�k�k��,6.8,��
2021/04/26,16:20,0.645,0.963,0.598,1.188,0.840,0.375,0.659,0.615,�k�k��,6.7,��
2021/04/26,16:30,0.646,0.962,0.597,1.187,0.838,0.374,0.659,0.618,�k�k��,5.6,��
2021/04/26,16:40,0.647,0.964,0.600,1.189,0.839,0.376,0.659,0.618,�k�k��,5.7,��
2021/04/26,16:50,0.646,0.963,0.600,1.190,0.839,0.375,0.659,0.619,�k�k��,5.9,��
2021/04/26,17:00,0.647,0.961,0.600,1.187,0.840,0.375,0.659,0.617,�k�k��,5.7,��
2021/04/26,17:10,0.646,0.965,0.599,1.187,0.840,0.376,0.657,0.618,�k�k��,5.9,��
2021/04/26,17:20,0.646,0.963,0.600,1.189,0.840,0.375,0.661,0.618,�k�k��,6.4,��
2021/04/26,17:30,0.647,0.963,0.600,1.190,0.840,0.374,0.659,0.619,�k�k��,6.0,��
2021/04/26,17:40,0.646,0.963,0.599,1.189,0.841,0.376,0.657,0.618,�k�k��,6.5,��
2021/04/26,17:50,0.645,0.964,0.600,1.187,0.842,0.374,0.657,0.619,�k�k��,6.6,��
2021/04/26,18:00,0.645,0.962,0.599,1.189,0.842,0.373,0.658,0.618,�k�k��,6.1,��
2021/04/26,18:10,0.646,0.962,0.598,1.187,0.844,0.376,0.658,0.619,�k�k��,6.5,��
2021/04/26,18:20,0.645,0.961,0.600,1.187,0.842,0.375,0.658,0.617,�k,5.3,��
2021/04/26,18:30,0.645,0.962,0.600,1.190,0.842,0.374,0.662,0.617,�k,4.9,��
2021/04/26,18:40,0.647,0.964,0.599,1.189,0.842,0.374,0.660,0.618,�k,3.6,��
2021/04/26,18:50,0.646,0.963,0.599,1.188,0.842,0.374,0.658,0.617,�k,4.8,��
2021/04/26,19:00,0.646,0.961,0.597,1.188,0.842,0.374,0.660,0.617,�k�k��,5.1,��
2021/04/26,19:10,0.644,0.962,0.597,1.188,0.841,0.374,0.659,0.617,�k�k��,5.4,��
2021/04/26,19:20,0.644,0.964,0.597,1.188,0.842,0.376,0.658,0.617,�k�k��,4.8,��
2021/04/26,19:30,0.645,0.965,0.600,1.189,0.844,0.375,0.660,0.617,�k�k��,4.6,��
2021/04/26,19:40,0.643,0.963,0.597,1.187,0.842,0.374,0.660,0.618,�k�k��,5.1,��
2021/04/26,19:50,0.644,0.964,0.598,1.187,0.841,0.375,0.659,0.616,�k�k��,4.6,��
2021/04/26,20:00,0.645,0.963,0.600,1.190,0.840,0.373,0.661,0.616,�k�k��,5.3,��
2021/04/26,20:10,0.644,0.963,0.599,1.185,0.841,0.374,0.661,0.617,�k�k��,5.1,��
2021/04/26,20:20,0.643,0.962,0.599,1.187,0.841,0.374,0.660,0.615,�k,5.6,��
2021/04/26,20:30,0.643,0.963,0.597,1.187,0.843,0.374,0.659,0.617,�k�k��,5.4,��
2021/04/26,20:40,0.645,0.963,0.597,1.188,0.840,0.375,0.659,0.617,�k�k��,5.0,��
2021/04/26,20:50,0.643,0.962,0.599,1.186,0.842,0.374,0.659,0.616,�k�k��,4.7,��
2021/04/26,21:00,0.643,0.962,0.600,1.187,0.840,0.373,0.660,0.616,�k�k��,4.5,��
2021/04/26,21:10,0.644,0.963,0.599,1.186,0.841,0.374,0.659,0.617,�k,4.6,��
2021/04/26,21:20,0.642,0.962,0.597,1.186,0.842,0.374,0.659,0.615,�k�k��,4.6,��
2021/04/26,21:30,0.643,0.964,0.599,1.186,0.840,0.371,0.659,0.618,�k�k��,4.7,��
2021/04/26,21:40,0.643,0.963,0.597,1.186,0.841,0.374,0.659,0.617,�k�k��,4.7,��
2021/04/26,21:50,0.642,0.961,0.597,1.184,0.840,0.372,0.660,0.616,�k�k��,4.6,��
2021/04/26,22:00,0.644,0.963,0.596,1.184,0.841,0.373,0.659,0.618,�k�k��,4.9,��
2021/04/26,22:10,0.643,0.962,0.598,1.185,0.840,0.373,0.659,0.616,�k�k��,4.6,��
2021/04/26,22:20,0.642,0.963,0.598,1.187,0.842,0.374,0.658,0.616,�k��,4.1,��
2021/04/26,22:30,0.641,0.963,0.600,1.186,0.841,0.374,0.659,0.618,�k��,4.3,��
2021/04/26,22:40,0.643,0.961,0.597,1.188,0.840,0.373,0.659,0.616,�k��,4.1,��
2021/04/26,22:50,0.642,0.961,0.597,1.184,0.841,0.372,0.658,0.616,�k��,3.9,��
2021/04/26,23:00,0.643,0.961,0.597,1.185,0.841,0.374,0.659,0.615,�k��,4.3,��
2021/04/26,23:10,0.642,0.962,0.596,1.184,0.841,0.373,0.658,0.615,�k��,4.7,��
2021/04/26,23:20,0.642,0.962,0.597,1.187,0.841,0.373,0.658,0.616,�k��,4.8,��
2021/04/26,23:30,0.642,0.961,0.597,1.188,0.838,0.373,0.657,0.617,�k��,5.7,��
2021/04/26,23:40,0.643,0.962,0.597,1.186,0.838,0.374,0.658,0.615,�k��,5.2,��
2021/04/26,23:50,0.642,0.961,0.597,1.188,0.841,0.374,0.658,0.616,�k��,5.4,��
